Regional Weather Roundup
Issued by NWS

Home | Current Version | Previous Version | Text Only | Print | Product List | Glossary On
Versions: 1 2 3 4 5 6 7 8 9 10 11 12 13 14 15 16 17 18 19 20 21 22 23 24 25 26 27
000
ASUS44 KJAN 221910
RWRMS

MISSISSIPPI HOURLY WEATHER ROUNDUP
NATIONAL WEATHER SERVICE JACKSON MS
200 PM CDT MON MAY 22 2017

NOTE: "FAIR: INDICATES FEW OR NO CLOUDS BELOW 12,000 FEET WITH NO
SIGNIFICANT WEATHER AND/OR OBSTRUCTIONS TO VISIBILITY.

MSZ001>002-007>008-010>013-018>021-025>028-034>036-222000-
NORTHWEST MISSISSIPPI

CITY           SKY/WX    TMP DP  RH WIND       PRES   REMARKS
CLARKSDALE       N/A     72  57  60 MISG      30.04F
CLEVELAND      CLOUDY    70  60  69 N7        30.03F
GREENWOOD      CLOUDY    70  64  81 CALM      30.04S
GREENVILLE     CLOUDY    69  57  65 E6        30.02F
OLIVE BRANCH   PTSUNNY  N/A N/A N/A VRB6      30.05F
OXFORD         FAIR      72  57  60 NE7       30.05F
TUNICA         CLOUDY    70  55  60 NE5       30.06F
WINONA         LGT RAIN  69  65  88 CALM      30.02F
$$

MSZ003>006-009-014>017-022>024-029>033-037>039-222000-
NORTHEAST MISSISSIPPI

CITY           SKY/WX    TMP DP  RH WIND       PRES   REMARKS
COLUMBUS AFB   CLOUDY    76  68  77 N3        30.02F
CORINTH        FAIR      73  55  53 NE5       30.05F
STARKVILLE     RAIN      68  64  88 CALM      30.04F
TUPELO         CLOUDY    75  58  55 N3        30.04F
$$

MSZ040-058-222000-
CENTRAL MISSISSIPPI

CITY           SKY/WX    TMP DP  RH WIND       PRES   REMARKS
JACKSON INTL   LGT RAIN  72  66  81 SE5       30.03F
JACKSON HAWKNS LGT RAIN  71  63  75 CALM      30.04S
MADISON        LGT RAIN  70  64  83 CALM      30.03S
MERIDIAN KEY   LGT RAIN  77  70  79 SW6       30.01F
MERIDIAN NAS   CLOUDY    78  66  66 NW3       30.01F
VICKSBURG VKS  PTCLDY    68  64  88 CALM      30.01S
$$

MSZ059>079-222000-
SOUTH MISSISSIPPI

CITY           SKY/WX    TMP DP  RH WIND       PRES   REMARKS
COLUMBIA       FAIR      72  68  88 CALM      30.05F
HATTIESBURG    CLOUDY    72  67  84 CALM      30.03F
LAUREL         CLOUDY    72  69  91 CALM      30.02F
MCCOMB         LGT RAIN  71  66  84 CALM      30.03F
NATCHEZ        RAIN      68  66  93 NE3       30.04S
PINE BELT      NOT AVBL
$$

MSZ080>082-222000-
COASTAL MISSISSIPPI

CITY           SKY/WX    TMP DP  RH WIND       PRES   REMARKS
BAY ST LOUIS   PTSUNNY   75  70  83 CALM      30.02S
BILOXI         CLOUDY    78  67  68 SW3       30.00F
PASCAGOULA     CLOUDY    79  68  69 CALM      30.00F
GULFPORT       CLOUDY    77  69  76 W3        30.00F
$$

LAZ007>009-015>016-023>026-222000-
NORTHEAST LOUISIANA

CITY           SKY/WX    TMP DP  RH WIND       PRES   REMARKS
BASTROP        LGT RAIN  63  63  98 CALM      30.06F
TALLULAH/VBURG RAIN      67  64  90 N6        30.04S
VIDALIA        LGT RAIN  68  66  94 N6        30.01F
$$




USA.gov is the U.S. government's official web portal to all federal, state and local government web resources and services.